OBJECT C

Satellite information

Favourite Embed

Satellite Type and Status

UNKNOWNIN ORBIT

Key statistics

Satellite OBJECT C at a glance.

Uptime

75

Days in orbit

Revolutions

≈ 15.2

Per day

Orbit

SSO

Sun Synchronous Orbit

Inclination

97.4

Latest

Satellite identification and parameters

Extended collection of information and parameters for OBJECT C.

Object identification

Identified? True

Debris? False

Object name: OBJECT C

International designator: 2025-135C

Object number (NORAD): 64530

Object ID (CCSDS): 64530

Country: TO BE DETERMINED/UNKNOWN (TBD)

Current information (Y/N): Y

RCS size: MEDIUM

Orbital parameters

Period: 94.86 minutes

Inclination: 97.4434 deg

SMA: 6889.93 km

Apoapsis: 516.033 km

Periapsis: 507.557 km

RAAN: 2.0835 deg

Eccentricy: 0.00061514

Argument of periapsis: 100.5127 deg

Mean anomaly: 259.68 deg

Mean motion: 15.18030712 rev/day

Mean motion (dot): 0.00012847 rev/day2

B* drag term: 0.0006336993 1/REarth

Two-line elements (TLE)

Creation date: Sept. 6, 2025, 2:09 a.m.

Reference frame: TEME

Reference center: EARTH

Epoch: Sept. 5, 2025, 8:41 p.m. UTC

TLE line 0: 0 OBJECT C

TLE line 1: 1 64530U 25135C 25248.86215339 .00012847 00000-0 63370-3 0 9996

TLE line 2: 2 64530 97.4434 2.0835 0006151 100.5127 259.6800 15.18030712 11660

Live tracking on map

Real-time ground track for satellite OBJECT C.

In-orbit conjunctions

There are no conjunctions computed for OBJECT C, at the moment. Check back to stay up to date, as we update our databases every day.

Go to all conjunctions

Associated space launch

Dedicated rideshare flight to a sun-synchronous orbit with dozens of small microsatellites and nanosatellites for commercial and government customers.

OBJECT C was lifted into orbit during the mission ‘Falcon 9 Block 5 | Transporter 14 (Dedicated SSO Rideshare)’, on board a Falcon 9 space rocket.

The launch took place on June 23, 2025, 9:25 p.m. from Space Launch Complex 4E.

For more information about the launch, click the button.

Launch to space Falcon 9 Block 5 | Transporter 14 (Dedicated SSO Rideshare)
Falcon 9 Block 5 | Transporter 14 (Dedicated SSO Rideshare)

Agency: SpaceX

Status: Launch Successful

Launch date: June 23, 2025, 9:25 p.m. UTC

Rocket: Falcon 9

Launch pad: Space Launch Complex 4E

Location: Vandenberg SFB, CA, USA

...

Latest news about this satellite

News about space launch
A European spacecraft company flies its vehicle, then loses it after reentry

"This partial success reflects both ambition and the inherent risks of innovation."

News about space launch
The Exploration Company claims partial success of Mission Possible reentry spacecraft

The Exploration Company said it achieved “partial success” on a test flight of a reentry capsule but lost the spacecraft before it splashed down. The post The Exploration Company claims partial success of Mission Possible reentry spacecraft appeared firs...

News about space launch
The Exploration Company Declares Mission Possible a “Partial Success”

In-space logistics startup The Exploration Company has declared its Mission Possible flight both a partial success and a partial failure following a successful reentry. As The Exploration Company works toward the inaugural flight of its full-scale Nyx spa...


Newsletter sign-up

Weekly statistics, charts and insights to help you stay on top of the space industry.